[[{"header":{"parameterUnit":"m.s-1","parameterCategory":1,"la1":30.2991,"la2":30.254,"lo1":-89.0895,"lo2":-89.0444,"dy":0.0017,"dx":0.0017,"nx":28,"ny":28,"refTime":"2025-07-09T03:00:00:Z","depth":0,"parameterNumber":2,"parameterNumberName":"U-component_of_WINDS"},"data":[0,0,0,0,0,0,0,0,0,0,0,0,0,0,0,0,0,0,0,0,0,0,0,0,0,0,0,0,0,0,0,0,0,0,0,0,0,0,0,0,0,0,0,0,0,0,0,0,0,0,0,0,0,0,0,0,0,0,4.36,4.3601,0,4.3718,4.372,4.3721,4.365,4.3647,4.3643,4.364,4.3765,4.3771,4.3778,0,0,0,0,0,0,0,0,0,0,0,0,0,4.3315,4.3321,4.36,4.3601,4.3603,4.3718,4.372,4.3721,4.3651,4.3647,4.3643,4.3639,4.3763,4.3771,4.3778,0,0,0,0,0,0,0,0,0,0,0,0,0,4.3437,4.3323,4.36,4.3581,4.3581,4.3718,4.372,4.3722,4.3652,4.3647,4.3641,4.3637,4.376,4.377,4.378,4.3942,0,0,4.3809,4.3814,0,0,0,0,0,0,0,0,4.343,4.3448,4.3583,4.3583,4.3583,4.3664,4.3665,4.3796,4.3653,4.3625,4.364,4.3634,4.3736,4.3747,4.3781,4.3948,4.3953,4.381,4.3816,4.382,4.3823,0,0,0,0,0,0,0,4.3422,4.3442,4.3647,4.3585,4.3585,4.3568,4.358,4.369,4.3708,4.3627,4.3622,4.3637,4.3735,4.3772,4.3783,4.3955,4.381,4.3819,4.3825,4.3828,4.4262,4.4268,0,0,0,0,0,0,4.3414,4.3436,4.3643,4.365,4.3492,4.3578,4.3591,4.3643,4.3706,4.3711,4.3641,4.3633,4.3758,4.3772,4.3787,4.3982,4.382,4.3829,4.3835,4.4257,4.4264,4.427,0,0,0,0,0,0,4.3409,4.3434,4.3638,4.3542,4.3566,4.3588,4.3648,4.3648,4.3685,4.3717,4.372,4.3675,4.3754,4.3774,4.3904,4.3986,4.3834,4.3843,4.425,4.4259,4.4267,4.4374,0,0,0,0,0,0,4.3401,4.3432,4.3493,4.3544,4.3572,4.3752,4.3653,4.3654,4.3702,4.3692,4.375,4.3755,4.3752,4.389,4.3914,4.3996,4.385,4.4243,4.4254,4.4264,4.4363,4.4385,4.4403,0,0,0,0,0,4.3391,4.3519,4.3497,4.3522,4.3649,4.3757,4.3773,4.3766,4.3708,4.3771,4.3791,4.3753,4.3973,4.3904,4.393,4.4017,4.4238,4.4251,4.4263,4.4354,4.438,4.4403,0,0,0,0,0,0,4.3479,4.3525,4.3501,4.3649,4.37,4.3745,4.3823,4.3795,4.3864,4.3852,4.3841,4.3855,4.3991,4.4017,4.3939,4.4178,4.4096,4.4115,4.4156,4.4182,4.4202,4.4193,4.3858,0,0,0,0,0,4.3515,4.3598,4.3635,4.3762,4.3789,4.3802,4.3849,4.3839,4.3891,4.3913,4.3943,4.3996,4.4077,4.4131,4.4207,4.4366,4.4378,4.4439,4.4459,4.4476,4.4492,4.4579,4.4606,4.4312,4.4312,4.4311,0,0,4.3592,4.3628,4.3681,4.3781,4.3819,4.3906,4.382,4.3916,4.3981,4.3927,4.4052,4.4076,4.4135,4.4281,4.4346,4.4306,4.4576,4.4492,4.4505,4.4512,4.4595,4.4623,4.4647,4.432,4.4319,4.4317,0,0,4.3777,4.3812,4.3922,4.3961,4.4019,4.4027,4.4054,4.4103,4.4117,4.4242,4.4203,4.4281,4.4421,4.4464,4.4505,4.4706,4.4673,4.4731,4.4837,4.4922,4.4945,4.4966,4.5038,4.5064,4.4747,4.4748,4.4748,0,4.3865,4.3994,4.3982,4.4081,4.4127,4.4081,4.4193,4.4232,4.4313,4.4346,4.43,4.4474,4.451,4.4666,4.4715,4.4749,4.478,4.4725,4.4942,4.4963,4.4982,4.5051,4.5078,4.4754,4.4754,4.4753,4.4752,0,4.41,4.419,4.4272,4.435,4.4405,4.451,4.4515,4.4572,4.4558,4.4571,4.4699,4.4741,4.4825,4.4861,4.4849,4.5016,4.4989,4.4943,4.4861,4.5017,4.5082,4.5108,4.4764,4.4762,4.476,4.4758,0,0,4.4344,4.4413,4.4444,4.4479,4.4539,4.4609,4.4713,4.4794,4.4844,4.4901,4.4988,4.5107,4.5065,4.5111,4.5103,4.5177,4.5335,4.5122,4.5124,4.5161,4.5522,4.5557,4.5587,4.5313,4.5318,4.5322,4.5517,0,4.4532,4.4712,4.4704,4.4872,4.4956,4.4914,4.5004,4.5051,4.5067,4.514,4.5157,4.5242,4.518,4.5208,4.5279,4.53,4.5407,4.5286,4.5395,4.5399,4.5382,4.5621,4.5658,4.584,4.5542,4.5547,4.555,0,4.4776,4.4841,4.5017,4.5065,4.51,4.5181,4.5255,4.5326,4.538,4.5385,4.5437,4.5417,4.5523,4.5437,4.5584,4.5501,4.5546,4.5563,4.557,4.558,4.5484,4.5639,4.5898,4.5926,4.5589,4.5586,4.5583,0,4.4938,4.5068,4.519,4.5222,4.5281,4.5339,4.5367,4.5415,4.5464,4.553,4.5562,4.5639,4.5681,4.5742,4.5744,4.5681,4.5892,4.5807,4.5901,4.5901,4.5948,4.5945,4.6219,4.5976,4.5975,4.5975,4.5974,0,4.5149,4.5259,4.5264,4.5339,4.5461,4.5452,4.5573,4.5595,4.5638,4.5718,4.5686,4.5762,4.5759,4.5837,4.5839,4.596,4.598,4.5988,4.5987,4.5991,4.599,4.6021,4.6008,4.5982,4.598,4.5979,4.5978,0,4.535,4.5358,4.5488,4.5533,4.5547,4.5635,4.5674,4.5747,4.5758,4.586,4.5883,4.5902,4.5992,4.5999,4.6103,4.6104,4.6252,4.6237,4.6233,4.6231,4.6325,4.6317,4.6628,4.6669,4.6399,4.6402,4.6404,0,4.5485,4.5568,4.5622,4.5673,4.5703,4.5785,4.5835,4.583,4.5883,4.595,4.6015,4.6101,4.6169,4.6314,4.6338,4.6418,4.6405,4.6509,4.6417,4.6419,4.6408,4.6403,4.6412,4.6527,4.653,4.6533,4.6535,0,4.5725,4.5724,4.5796,4.5871,4.5931,4.599,4.6044,4.6088,4.6089,4.6151,4.6241,4.6294,4.64,4.6486,4.6564,4.6593,4.6565,4.6563,4.6589,4.6595,4.6589,4.6594,4.6283,4.6556,4.6554,4.6553,4.6551,4.6551,4.5897,4.5969,4.6018,4.61,4.614,4.6192,4.6262,4.6282,4.6357,4.6442,4.6434,4.6534,4.6586,4.6687,4.6723,4.6802,4.6767,4.6805,4.6815,4.6824,4.6834,4.6576,4.6816,4.6816,4.6815,4.6815,4.6814,0,4.6135,4.6164,4.624,4.6317,4.6382,4.6348,4.6406,4.6463,4.6551,4.6601,4.6669,4.6773,4.6857,4.6887,4.6969,4.7026,4.7015,4.7048,4.7044,4.7052,4.6861,4.683,4.7055,4.7055,4.7055,4.7055,4.7055,4.7055,4.6267,4.6387,4.6392,4.6532,4.6561,4.6658,4.6695,4.6742,4.6782,4.6899,4.6968,4.6987,4.7029,4.7114,4.7189,4.7196,4.7228,4.7266,4.7268,4.7089,4.7065,4.7042,4.7013,4.7273,4.7273,4.7452,4.7454,4.7455]},{"header":{"parameterUnit":"m.s-1","parameterCategory":1,"la1":30.2991,"la2":30.254,"lo1":-89.0895,"lo2":-89.0444,"dy":0.0017,"dx":0.0017,"nx":28,"ny":28,"refTime":"2025-07-09T03:00:00:Z","depth":0,"parameterNumber":3,"parameterNumberName":"V-component_of_WINDS"},"data":[0,0,0,0,0,0,0,0,0,0,0,0,0,0,0,0,0,0,0,0,0,0,0,0,0,0,0,0,0,0,0,0,0,0,0,0,0,0,0,0,0,0,0,0,0,0,0,0,0,0,0,0,0,0,0,0,0,0,-1.0203,-1.0204,0,-1.0294,-1.0295,-1.0296,-1.0326,-1.0326,-1.0325,-1.0325,-1.0419,-1.0422,-1.0425,0,0,0,0,0,0,0,0,0,0,0,0,0,-1.0059,-1.0061,-1.0203,-1.0205,-1.0206,-1.0294,-1.0295,-1.0296,-1.0326,-1.0326,-1.0325,-1.0325,-1.0418,-1.0422,-1.0425,0,0,0,0,0,0,0,0,0,0,0,0,0,-1.0133,-1.0062,-1.0203,-1.0231,-1.0235,-1.0293,-1.0295,-1.0296,-1.0326,-1.0326,-1.0325,-1.0325,-1.0417,-1.0421,-1.0425,-1.0463,0,0,-1.0439,-1.044,0,0,0,0,0,0,0,0,-1.0128,-1.0138,-1.0226,-1.0229,-1.0233,-1.0298,-1.0278,-1.0353,-1.0326,-1.0292,-1.0325,-1.0324,-1.0379,-1.0387,-1.0405,-1.0468,-1.0472,-1.0439,-1.0442,-1.0443,-1.0445,0,0,0,0,0,0,0,-1.0123,-1.0134,-1.0239,-1.0227,-1.0232,-1.024,-1.025,-1.0293,-1.0338,-1.0295,-1.0297,-1.0307,-1.0381,-1.0401,-1.0407,-1.0473,-1.0439,-1.0443,-1.0445,-1.0447,-1.0572,-1.0573,0,0,0,0,0,0,-1.0113,-1.013,-1.0236,-1.0242,-1.0178,-1.0243,-1.0254,-1.0278,-1.0337,-1.0346,-1.0308,-1.0308,-1.0394,-1.0402,-1.0411,-1.0459,-1.0443,-1.0447,-1.045,-1.0572,-1.0572,-1.0573,0,0,0,0,0,0,-1.011,-1.0122,-1.0233,-1.0187,-1.0201,-1.0246,-1.0273,-1.028,-1.0299,-1.0347,-1.0355,-1.0319,-1.0394,-1.0405,-1.045,-1.0463,-1.0449,-1.0453,-1.0571,-1.0572,-1.0573,-1.0556,0,0,0,0,0,0,-1.0106,-1.0121,-1.0135,-1.0187,-1.0204,-1.027,-1.0273,-1.0282,-1.0307,-1.0308,-1.036,-1.0368,-1.0394,-1.0444,-1.0454,-1.0469,-1.0457,-1.057,-1.0571,-1.0572,-1.0556,-1.0556,-1.0557,0,0,0,0,0,-1.01,-1.0127,-1.0136,-1.0149,-1.0222,-1.027,-1.028,-1.0309,-1.0307,-1.0323,-1.0353,-1.0366,-1.046,-1.0448,-1.046,-1.0476,-1.0569,-1.0571,-1.0572,-1.0555,-1.0556,-1.0557,0,0,0,0,0,0,-1.0077,-1.0135,-1.0145,-1.0189,-1.0224,-1.0275,-1.0295,-1.0309,-1.0346,-1.0346,-1.0381,-1.0393,-1.0435,-1.0461,-1.0446,-1.0516,-1.0515,-1.0519,-1.0498,-1.0499,-1.05,-1.0493,-1.046,0,0,0,0,0,-1.0077,-1.011,-1.0159,-1.0194,-1.0211,-1.025,-1.0272,-1.0291,-1.033,-1.0345,-1.0379,-1.0416,-1.0454,-1.0478,-1.0516,-1.056,-1.0572,-1.0577,-1.0578,-1.0578,-1.0581,-1.0606,-1.0609,-1.0579,-1.0579,-1.0579,0,0,-1.0077,-1.0113,-1.0132,-1.019,-1.022,-1.0254,-1.0262,-1.0299,-1.0325,-1.0351,-1.0395,-1.0422,-1.0466,-1.051,-1.0532,-1.0533,-1.0592,-1.058,-1.058,-1.0583,-1.0608,-1.0611,-1.0614,-1.058,-1.058,-1.058,0,0,-1.0095,-1.0126,-1.0157,-1.0187,-1.0232,-1.0258,-1.0265,-1.0314,-1.0333,-1.0378,-1.0398,-1.043,-1.0495,-1.0525,-1.0549,-1.0579,-1.0593,-1.0591,-1.0594,-1.0619,-1.0621,-1.0623,-1.0634,-1.0637,-1.0594,-1.0594,-1.0594,0,-1.009,-1.0142,-1.0172,-1.0207,-1.0232,-1.0257,-1.029,-1.0318,-1.0373,-1.039,-1.039,-1.0471,-1.0502,-1.0555,-1.0562,-1.0581,-1.0591,-1.0584,-1.0618,-1.0621,-1.0623,-1.0634,-1.0638,-1.0593,-1.0593,-1.0593,-1.0593,0,-1.0134,-1.017,-1.019,-1.0242,-1.0269,-1.0303,-1.0339,-1.0363,-1.038,-1.0406,-1.0452,-1.0491,-1.0537,-1.0551,-1.0568,-1.0606,-1.0605,-1.0611,-1.0611,-1.0625,-1.0636,-1.064,-1.0592,-1.0592,-1.0592,-1.0593,0,0,-1.0139,-1.0207,-1.0214,-1.0238,-1.0289,-1.0318,-1.0353,-1.0398,-1.0418,-1.0455,-1.0486,-1.054,-1.0546,-1.0573,-1.0594,-1.0616,-1.0637,-1.062,-1.0621,-1.0621,-1.0681,-1.0676,-1.068,-1.0647,-1.0647,-1.0648,-1.0677,0,-1.0163,-1.0226,-1.0255,-1.0305,-1.0339,-1.0364,-1.0394,-1.043,-1.0455,-1.0488,-1.0517,-1.0554,-1.056,-1.0576,-1.0598,-1.0629,-1.0649,-1.0628,-1.0676,-1.0677,-1.0663,-1.0685,-1.068,-1.0705,-1.0682,-1.0682,-1.0683,0,-1.02,-1.0237,-1.029,-1.0338,-1.0353,-1.038,-1.0423,-1.0454,-1.0495,-1.0512,-1.0543,-1.0563,-1.0602,-1.0599,-1.0653,-1.0638,-1.0659,-1.0678,-1.0679,-1.0684,-1.068,-1.0691,-1.0714,-1.0718,-1.069,-1.0689,-1.0689,0,-1.0198,-1.0261,-1.0301,-1.0321,-1.0378,-1.0396,-1.0421,-1.0461,-1.0486,-1.0524,-1.054,-1.0583,-1.0605,-1.0638,-1.0669,-1.0664,-1.072,-1.072,-1.0736,-1.0735,-1.0746,-1.0745,-1.0773,-1.076,-1.076,-1.076,-1.076,0,-1.0222,-1.0254,-1.0301,-1.0326,-1.0363,-1.0395,-1.0431,-1.0458,-1.0493,-1.0524,-1.0548,-1.0577,-1.0617,-1.065,-1.0675,-1.0716,-1.0727,-1.0742,-1.0748,-1.0739,-1.0737,-1.0754,-1.0752,-1.0761,-1.0761,-1.0761,-1.0761,0,-1.0226,-1.0259,-1.0304,-1.0354,-1.0367,-1.0392,-1.0435,-1.0461,-1.0487,-1.0526,-1.0537,-1.0579,-1.0621,-1.0655,-1.0709,-1.0726,-1.0769,-1.0776,-1.0754,-1.0758,-1.0771,-1.0769,-1.081,-1.0817,-1.08,-1.08,-1.08,0,-1.0239,-1.0264,-1.0316,-1.0338,-1.0362,-1.0397,-1.0423,-1.0456,-1.0482,-1.053,-1.055,-1.0593,-1.0629,-1.0693,-1.0729,-1.0771,-1.078,-1.0791,-1.0786,-1.0777,-1.078,-1.0777,-1.078,-1.0791,-1.0791,-1.0791,-1.0791,0,-1.0258,-1.0273,-1.0308,-1.0349,-1.0379,-1.0413,-1.0448,-1.0465,-1.0505,-1.0532,-1.0574,-1.0602,-1.0657,-1.07,-1.0745,-1.0772,-1.0788,-1.0793,-1.0798,-1.079,-1.0776,-1.0783,-1.0755,-1.0791,-1.0791,-1.0791,-1.0791,-1.0791,-1.0267,-1.029,-1.033,-1.0369,-1.0399,-1.0431,-1.0457,-1.0487,-1.0522,-1.0569,-1.0587,-1.063,-1.0671,-1.0734,-1.076,-1.0795,-1.0797,-1.0806,-1.0808,-1.0809,-1.0808,-1.0771,-1.0804,-1.0804,-1.0804,-1.0804,-1.0804,0,-1.0287,-1.0314,-1.0349,-1.0397,-1.0427,-1.044,-1.0479,-1.0504,-1.0541,-1.0578,-1.0613,-1.0661,-1.0702,-1.0742,-1.0785,-1.0805,-1.0814,-1.0815,-1.0814,-1.082,-1.0803,-1.0794,-1.0808,-1.0808,-1.0808,-1.0808,-1.0808,-1.0808,-1.0301,-1.0341,-1.0361,-1.0416,-1.0444,-1.0485,-1.0507,-1.0537,-1.0566,-1.0619,-1.0653,-1.0678,-1.0716,-1.0762,-1.0801,-1.0812,-1.0826,-1.0826,-1.0838,-1.0822,-1.0821,-1.082,-1.0812,-1.0829,-1.0829,-1.0852,-1.0852,-1.0852]}]]